STARLINK-32245 (62133 NORAD) Tracking and Keplerian Element Data

This shows tracking and keplerian element data for the satellite.

Feedback or suggestion? Click here.




ElementValue
Catalog62133
NameSTARLINK-32245
Epoch Orbit1190
Epoch Day34.90689867
Epoch Year2025
RAAN229.7446
Inclination43.0047
Eccentricity0.0002649
Argument of Perigee287.9349
Mean Anonmoly72.1219
Mean Motion15.40694055
Decay Rate-9.91E-06
L11 62133U 24222V 25034.90689867 -.00000991 00000+0 -16443-4 0 9996
L22 62133 43.0047 229.7446 0002649 287.9349 72.1219 15.40694055 11904



Live tracking and technical data element details for STARLINK-32245 (NORAD 62133). STARLINK-32245 can be tracked NOW for your location showing map with azimuth and elevation plus other details from your city location.







IsCatalogInMostPopularTable: catalog: 62133, numindb: 13
Update: records affected: 1



GetName: 62133 STARLINK-32245

Hit Count: updated at: Mon, 19 May 2025 02:46:01 GMT